Wind_Speed
13 12 12 14 15 17 19 19 15 9 8 9 10 10 12 13 16 19 21 24 26 27 27 27 28 28 29 31 33 35 36 37 41 45 47 48 48 47 49 49 49 48 48
15 17 17 17 17 15 11 8 7 6 5 6 6 8 10 13 16 19 21 22 23 24 24 25 27 28 30 32 35 39 41 43 45 49 52 56 53 51 52 52 52 53 52
15 15 14 14 12 10 9 8 7 6 6 7 9 11 13 15 17 18 20 21 22 23 25 27 29 32 35 38 41 44 47 49 47 48 50 55 58 60 57 56 56 55 54
17 15 13 12 12 11 10 8 7 7 8 10 13 14 15 16 17 17 19 20 22 25 27 30 33 36 39 42 44 46 47 48 49 48 46 47 53 57 65 59 59 57 58
18 14 13 15 13 13 11 8 7 8 10 11 13 14 15 15 16 18 20 23 25 28 31 34 37 39 41 43 44 44 43 44 45 46 47 46 47 48 53 64 61 58 57
16 15 17 16 15 12 10 8 7 8 11 14 16 16 16 16 18 21 23 25 29 32 35 37 38 41 42 42 38 38 39 40 41 43 45 47 50 52 55 60 62 64 62
15 17 18 17 15 12 10 9 9 12 15 18 18 17 18 20 23 25 27 31 34 34 34 35 38 40 37 37 38 39 39 40 42 43 46 48 51 54 57 61 65 68 67
17 19 19 18 15 12 11 11 13 16 19 21 20 20 22 25 28 30 33 37 37 36 36 38 41 41 39 39 40 40 42 43 45 47 49 52 54 56 58 61 64 70 70
18 20 20 19 16 13 12 14 16 19 22 23 23 25 28 31 34 37 39 37 37 37 39 40 41 40 39 40 41 42 44 46 48 51 53 55 57 58 59 59 60 62 69
21 21 22 20 16 15 15 16 19 22 24 26 27 29 32 36 39 42 40 40 41 42 41 40 40 39 40 41 43 45 47 50 52 55 58 58 58 58 57 57 57 57 59
21 21 21 19 17 17 18 18 22 25 26 28 30 33 36 39 41 45 44 46 46 43 40 39 40 40 41 43 46 48 52 55 57 57 58 58 57 57 56 56 55 55 55
19 19 20 19 19 19 20 22 26 27 28 30 33 36 38 41 43 45 46 47 45 40 39 40 41 42 44 46 49 53 55 57 58 59 59 58 57 56 55 54 55 56 55
19 21 21 20 20 21 22 25 27 28 31 33 35 38 41 43 46 47 47 44 39 39 40 42 43 45 47 50 52 54 57 59 60 61 60 59 57 56 55 54 53 51 49
20 21 22 22 22 22 25 27 29 31 32 34 36 39 44 46 45 45 41 39 38 39 41 42 45 47 49 51 53 56 59 61 62 61 58 55 54 53 51 49 47 46 47
22 23 23 22 23 26 27 29 30 32 33 36 39 43 45 43 42 39 37 37 38 40 42 45 47 49 50 52 56 59 61 62 61 58 55 52 50 48 45 44 45 46 46
22 22 22 24 26 26 27 29 32 33 34 37 41 44 42 42 38 36 37 38 40 42 45 47 49 50 51 54 57 59 61 60 59 57 53 49 46 45 44 44 43 42 41
21 23 24 24 24 26 28 31 31 32 34 39 41 40 40 38 37 37 38 41 43 45 46 48 49 50 53 55 58 60 59 58 55 52 50 47 46 45 46 45 44 42 39
21 21 21 22 25 28 28 28 29 33 37 37 37 36 37 37 38 38 41 43 46 46 48 49 50 52 54 57 59 58 57 54 52 50 48 46 45 44 45 45 42 41 45
20 20 22 25 25 24 25 27 31 33 33 33 35 35 36 37 38 40 43 45 47 47 48 50 52 53 55 56 56 55 54 52 50 48 46 45 45 45 43 42 44 49 47
18 21 23 21 21 23 25 28 29 31 33 34 34 35 36 38 40 43 46 46 47 49 50 51 53 53 54 54 54 52 52 50 49 47 46 47 46 44 43 46 48 48 44
21 19 18 20 22 23 24 27 28 30 32 33 33 35 37 40 43 45 46 47 48 49 50 51 52 54 54 54 52 49 49 49 50 50 49 48 45 45 45 42 42 42 42
17 17 19 20 21 23 24 26 28 30 31 32 33 35 38 42 45 46 46 47 48 49 50 51 52 54 54 51 50 48 48 48 49 50 49 47 47 46 42 39 37 37 38
16 18 19 20 21 22 24 26 27 28 29 31 34 38 40 43 44 45 47 48 49 50 50 51 53 53 53 52 50 48 48 49 49 48 47 46 46 42 37 33 33 34 36
17 18 19 20 21 23 25 26 26 27 30 33 37 39 41 42 43 45 46 47 48 49 50 51 52 53 53 52 50 49 50 49 48 46 46 44 41 37 34 31 30 32 35
17 19 19 21 22 24 25 25 26 28 32 35 39 40 41 42 43 45 47 47 47 48 49 49 50 51 52 51 50 49 49 48 45 46 43 41 38 35 30 28 30 32 38
18 19 21 22 23 23 23 25 28 32 35 37 39 40 41 43 45 46 47 48 47 47 46 45 46 48 48 49 48 48 47 44 41 41 39 38 35 31 29 31 32 37 32
Wind_Direction
246 244 243 248 257 265 268 270 265 252 247 246 251 252 257 262 267 271 273 275 277 280 282 283 286 287 289 292 294 296 298 299 299 299 296 295 294 293 294 293 293 290 288
247 244 247 253 263 264 252 225 219 223 221 229 241 256 264 269 273 274 274 276 278 279 282 286 290 294 297 300 301 300 299 299 302 302 302 301 297 297 297 295 294 293 292
243 241 247 250 244 213 203 201 205 220 245 263 273 278 281 282 281 281 281 283 287 291 294 296 298 300 300 301 301 302 303 302 301 301 302 303 302 300 299 296 294 294 293
235 238 239 224 198 192 197 210 231 257 278 286 290 293 294 292 290 290 291 292 294 298 300 300 300 301 301 301 301 301 302 302 302 300 298 297 299 303 302 300 300 298 296
223 227 213 187 188 194 209 228 257 282 298 308 310 307 302 299 296 297 301 304 303 303 301 299 298 300 300 302 302 303 302 302 303 304 304 302 299 299 299 300 302 300 300
212 208 189 187 191 207 226 251 277 302 313 316 314 310 307 307 309 309 307 304 302 300 300 301 302 304 306 306 306 307 308 308 307 307 307 308 308 308 306 303 300 299 299
201 192 188 190 201 220 242 266 290 306 316 323 319 315 314 313 311 309 306 305 306 304 304 305 310 313 313 313 312 312 311 311 310 309 308 307 306 305 304 302 300 298 297
196 191 192 198 212 231 252 279 298 308 318 322 316 313 313 314 312 310 309 310 311 308 307 311 317 320 318 316 314 314 313 311 309 307 306 305 305 303 302 301 300 296 293
199 198 200 207 220 238 260 282 297 309 314 315 310 311 313 313 313 313 315 314 314 314 316 318 319 318 316 314 314 313 312 311 310 309 307 306 305 303 301 299 297 297 296
199 201 205 213 228 245 262 280 299 307 307 307 306 309 312 314 314 313 316 320 320 322 320 318 318 316 315 315 315 315 314 313 312 311 310 309 307 305 304 302 300 298 297
198 205 211 221 239 251 263 284 300 301 301 301 303 306 310 313 314 313 318 319 319 320 319 319 317 316 317 318 317 317 316 315 314 313 312 312 311 310 308 306 303 301 300
201 209 217 231 246 257 271 287 296 296 295 295 299 305 310 312 311 310 314 316 316 318 318 318 318 320 320 319 318 317 316 316 316 317 316 314 313 310 308 307 306 303 301
212 218 226 241 255 266 275 287 291 290 292 296 299 303 306 307 308 312 312 313 316 316 318 320 319 319 319 319 318 318 318 318 318 318 316 315 313 311 310 308 305 304 303
226 229 237 249 262 272 280 283 285 287 291 294 296 300 303 308 311 312 314 314 316 318 319 318 318 318 319 318 318 319 320 320 319 319 317 315 313 311 311 309 309 307 304
238 238 246 260 267 272 276 280 284 288 291 295 297 299 306 312 313 313 314 316 317 317 317 317 317 318 319 319 320 321 321 321 320 319 317 316 316 314 313 310 308 306 306
239 246 255 263 267 271 277 283 285 288 292 294 295 299 308 312 311 314 315 315 317 317 317 317 317 319 320 321 321 322 322 321 319 318 318 319 318 314 311 308 306 308 308
246 254 259 263 268 276 281 282 285 288 289 290 297 304 307 310 314 315 316 316 316 316 316 316 318 319 321 322 322 323 322 320 319 318 319 319 315 313 310 311 311 309 304
255 258 261 268 277 279 281 282 284 285 288 297 303 305 311 313 313 315 315 315 316 316 317 318 319 322 322 322 322 322 321 319 319 319 319 318 317 316 316 314 313 308 304
254 260 272 280 281 283 282 281 282 291 302 304 307 310 310 311 314 314 314 316 317 318 318 320 320 321 321 321 321 323 322 321 320 320 320 318 317 318 318 314 305 302 307
264 277 283 284 286 286 285 285 291 301 305 306 309 309 311 313 314 316 317 319 319 320 321 320 321 320 320 322 325 325 323 322 320 320 320 319 321 319 315 311 310 311 312
280 285 288 288 285 286 289 291 296 299 304 306 309 311 313 314 315 318 319 320 320 320 321 320 319 320 322 325 326 325 322 322 321 321 320 321 321 319 316 315 313 312 314
286 289 288 288 289 289 292 297 300 302 305 307 309 311 313 316 319 320 320 320 321 321 320 319 320 322 324 326 326 325 323 324 322 321 322 322 322 320 320 317 315 314 314
287 290 292 291 293 296 299 301 301 302 305 308 311 315 318 319 320 321 321 321 320 320 320 321 322 323 323 324 326 327 325 324 324 323 322 322 322 322 320 320 319 317 315
291 293 295 298 299 300 299 300 302 304 309 314 317 319 320 320 321 320 320 321 321 322 322 323 322 321 323 326 328 327 327 326 325 323 321 323 323 325 326 324 322 321 322
300 301 301 300 298 299 301 302 305 311 317 320 320 320 320 320 320 320 322 322 323 323 324 322 321 323 325 327 327 328 327 326 324 318 322 325 328 329 328 326 327 328 328
302 301 300 300 300 299 301 309 315 319 321 321 320 320 320 320 321 322 323 323 324 323 322 323 324 324 326 325 327 327 325 324 321 322 325 329 330 331 332 332 334 336 337
Height
3107 3108 3109 3110 3110 3110 3109 3109 3108 3108 3109 3109 3108 3107 3106 3104 3103 3102 3100 3097 3095 3092 3089 3086 3082 3079 3075 3071 3067 3062 3058 3054 3048 3042 3038 3035 3032 3030 3024 3020 3017 3014 3012
3103 3104 3105 3105 3105 3105 3105 3106 3106 3106 3107 3107 3106 3105 3103 3102 3100 3098 3095 3092 3090 3087 3083 3080 3077 3073 3068 3064 3059 3054 3050 3047 3042 3033 3026 3019 3021 3018 3013 3009 3006 3002 2999
3099 3100 3101 3101 3101 3102 3103 3104 3104 3105 3106 3105 3104 3102 3100 3098 3095 3093 3090 3087 3084 3081 3078 3074 3070 3066 3062 3057 3052 3046 3040 3034 3033 3027 3019 3007 3002 2996 2998 2995 2991 2988 2984
3094 3096 3097 3097 3099 3100 3101 3102 3103 3103 3104 3103 3101 3099 3096 3093 3091 3088 3086 3083 3080 3076 3072 3068 3063 3059 3054 3049 3044 3038 3032 3025 3019 3017 3014 3008 2996 2985 2972 2976 2974 2973 2968
3090 3092 3093 3095 3097 3098 3099 3100 3100 3100 3100 3098 3097 3095 3093 3091 3088 3085 3081 3077 3073 3070 3066 3061 3056 3051 3046 3040 3034 3029 3023 3017 3010 3004 2999 2995 2991 2985 2975 2957 2957 2956 2951
3086 3088 3090 3093 3095 3097 3097 3097 3097 3097 3096 3095 3093 3091 3089 3086 3083 3079 3076 3073 3069 3064 3059 3054 3048 3043 3037 3031 3025 3020 3014 3009 3003 2996 2990 2983 2976 2969 2962 2952 2945 2939 2936
3083 3085 3089 3091 3093 3094 3094 3094 3094 3094 3092 3091 3089 3087 3085 3082 3079 3076 3072 3067 3062 3056 3051 3046 3041 3034 3028 3021 3016 3011 3005 2999 2993 2988 2981 2975 2968 2961 2952 2942 2932 2923 2920
3081 3084 3086 3089 3090 3091 3091 3091 3090 3089 3088 3086 3084 3082 3079 3077 3073 3069 3064 3059 3054 3048 3043 3037 3030 3023 3017 3011 3006 3001 2995 2989 2983 2977 2971 2964 2958 2950 2942 2932 2921 2908 2905
3078 3081 3084 3086 3087 3087 3087 3086 3085 3084 3083 3081 3079 3076 3074 3070 3066 3061 3057 3051 3045 3039 3033 3026 3020 3015 3009 3003 2998 2992 2986 2980 2974 2967 2960 2953 2945 2937 2929 2920 2911 2898 2884
3075 3078 3080 3083 3084 3084 3083 3082 3081 3079 3077 3075 3073 3071 3067 3063 3058 3053 3048 3042 3035 3029 3023 3017 3012 3006 3000 2994 2988 2982 2976 2969 2962 2955 2946 2938 2930 2921 2913 2905 2896 2887 2874
3072 3075 3078 3080 3080 3080 3079 3079 3077 3075 3072 3070 3067 3064 3060 3055 3050 3044 3038 3032 3027 3021 3014 3008 3003 2997 2990 2984 2978 2972 2964 2957 2949 2941 2932 2923 2914 2906 2897 2889 2881 2871 2862
3071 3073 3075 3076 3076 3076 3075 3074 3072 3070 3067 3064 3061 3058 3053 3048 3042 3036 3030 3025 3018 3011 3005 2999 2993 2987 2981 2975 2968 2961 2953 2944 2935 2926 2917 2909 2900 2893 2884 2874 2866 2857 2850
3068 3069 3071 3072 3072 3072 3071 3070 3067 3064 3062 3059 3055 3050 3046 3040 3034 3028 3022 3015 3009 3003 2996 2990 2984 2979 2973 2965 2958 2950 2941 2932 2923 2913 2904 2895 2885 2877 2869 2862 2853 2845 2837
3065 3066 3067 3068 3068 3067 3066 3064 3061 3058 3056 3052 3047 3042 3037 3032 3025 3019 3012 3006 3000 2994 2989 2983 2976 2970 2963 2956 2947 2938 2930 2920 2910 2901 2891 2882 2873 2865 2857 2848 2840 2833 2825
3062 3063 3063 3064 3063 3062 3060 3057 3055 3052 3049 3045 3040 3034 3030 3024 3017 3010 3004 2998 2993 2987 2981 2974 2968 2962 2954 2945 2936 2927 2918 2907 2897 2888 2879 2870 2862 2854 2846 2838 2831 2823 2816
3058 3058 3059 3058 3057 3056 3054 3052 3049 3046 3042 3037 3032 3027 3022 3016 3010 3003 2997 2992 2985 2979 2973 2966 2959 2952 2944 2935 2925 2916 2905 2895 2886 2876 2868 2860 2851 2843 2837 2829 2822 2815 2807
3053 3054 3054 3053 3052 3050 3048 3045 3042 3039 3035 3029 3024 3019 3015 3008 3001 2995 2989 2983 2978 2972 2965 2958 2950 2942 2934 2924 2914 2905 2896 2885 2875 2865 2857 2850 2842 2834 2825 2818 2810 2804 2798
3048 3048 3048 3048 3046 3044 3041 3038 3035 3031 3026 3022 3017 3012 3005 2999 2994 2988 2982 2977 2970 2963 2955 2947 2940 2931 2922 2913 2904 2895 2886 2875 2865 2855 2847 2840 2832 2824 2815 2806 2798 2793 2786
3043 3043 3043 3041 3038 3036 3034 3031 3027 3023 3019 3014 3009 3003 2998 2993 2986 2981 2975 2969 2961 2954 2946 2937 2928 2921 2913 2904 2895 2884 2874 2864 2856 2847 2839 2832 2823 2815 2807 2797 2787 2779 2774
3038 3037 3036 3033 3031 3029 3026 3023 3020 3016 3012 3006 3001 2996 2990 2984 2979 2973 2965 2958 2951 2944 2936 2927 2918 2911 2904 2894 2884 2874 2863 2855 2846 2840 2831 2822 2814 2805 2797 2787 2776 2766 2761
3032 3030 3029 3027 3025 3022 3019 3016 3013 3008 3004 2999 2994 2988 2983 2977 2970 2963 2956 2949 2942 2935 2927 2919 2910 2901 2892 2883 2875 2866 2856 2846 2837 2828 2820 2812 2804 2795 2786 2777 2768 2759 2751
3025 3024 3022 3020 3018 3015 3011 3008 3005 3001 2997 2992 2987 2982 2976 2968 2961 2954 2948 2941 2933 2926 2919 2911 2902 2891 2882 2874 2866 2858 2849 2839 2828 2819 2810 2801 2793 2784 2776 2768 2760 2753 2745
3020 3018 3016 3013 3009 3007 3004 3001 2998 2994 2990 2986 2980 2974 2967 2960 2953 2946 2940 2933 2926 2917 2909 2901 2891 2882 2873 2865 2857 2849 2840 2830 2819 2811 2802 2793 2784 2775 2768 2761 2755 2748 2740
3013 3011 3007 3005 3002 3000 2997 2994 2991 2988 2984 2978 2972 2965 2959 2953 2946 2940 2933 2925 2916 2908 2899 2891 2882 2874 2865 2856 2848 2839 2829 2820 2810 2801 2793 2785 2777 2769 2762 2756 2751 2743 2735
3006 3003 3001 2998 2996 2993 2991 2989 2985 2980 2975 2969 2964 2958 2952 2946 2940 2934 2925 2917 2909 2899 2890 2883 2873 2863 2855 2847 2838 2829 2820 2810 2802 2792 2786 2777 2769 2763 2758 2752 2746 2738 2728
2999 2996 2994 2992 2990 2987 2984 2981 2976 2972 2967 2963 2956 2951 2945 2939 2932 2924 2917 2908 2900 2892 2885 2876 2865 2857 2848 2839 2831 2822 2812 2804 2795 2787 2778 2771 2765 2759 2753 2746 2739 2731 2722